User: anonymous   Login
Location: Unspecified
(0.0000°N, 0.0000°E)
Time: 03:31:58
(UTC+00:00)
Language:

DELFI-N3XT - Orbit

View from above orbital plane
View from above orbital plane
View from above satellite
View from above satellite

Ground track
Ground track

The orbit data is extracted from the following two-line orbital elements,

1 39420U 13066E   17173.48872530 +.00000209 +00000-0 +45114-4 0  9990
2 39420 097.6537 177.9421 0138377 007.2778 353.0390 14.61854140191141
Epoch (UTC): 22 June 2017 11:43:45
Eccentricity: 0.0138377
inclination: 97.6537°
perigee height: 589 km
apogee height: 785 km
right ascension of ascending node: 177.9421°
argument of perigee: 7.2778°
revolutions per day: 14.61854140
mean anomaly at epoch: 353.0390°
orbit number at epoch: 19114

The dashed part of the orbit path shows where the satellite is in the earth's shadow,  

DLR